EHI
0 0 0 0 0 0 0 0 0 0 0 0 0 0 0 1 1 0 0 0 1 1 1 0 0 0 0 0 0 0 0 0 0 0 0 0 0 0 0 0 0 0 0 0
0 0 0 0 0 0 0 0 0 0 0 0 0 0 0 1 1 0 0 1 2 2 2 1 0 0 0 0 0 0 0 0 0 0 0 0 0 0 0 0 0 0 0 0
0 0 0 0 0 0 0 0 0 0 0 0 0 0 0 1 1 1 0 1 2 4 3 1 0 0 0 0 0 0 0 0 0 0 0 0 0 0 0 0 0 0 0 0
0 0 0 0 0 0 0 0 0 0 0 0 0 0 0 0 0 1 1 0 2 3 3 1 0 0 0 0 0 0 0 0 0 0 0 0 0 0 0 0 0 0 0 0
0 0 0 0 0 0 0 0 0 0 0 0 0 0 0 0 0 1 1 0 1 2 3 3 1 0 0 0 0 0 0 0 0 0 0 0 0 0 0 0 0 0 0 0
0 0 0 0 0 0 0 0 0 0 0 0 0 0 0 0 0 0 0 0 1 2 4 4 3 1 0 0 0 0 0 0 0 0 0 0 0 0 0 0 0 0 0 0
0 0 0 0 0 0 0 0 0 0 0 0 0 0 0 0 0 0 0 0 1 3 5 6 4 1 0 0 0 0 0 0 0 0 0 0 0 0 0 0 0 0 0 0
0 0 0 0 0 0 0 0 0 0 0 0 0 0 0 0 0 0 0 0 2 4 6 6 5 2 0 0 0 0 0 0 0 0 0 0 0 0 0 0 0 0 0 0
0 0 0 0 0 0 0 0 0 0 0 0 0 0 0 0 0 0 0 0 2 5 6 6 5 3 1 0 0 0 0 0 0 0 0 0 0 0 0 0 0 0 0 0
0 0 0 0 0 0 0 0 0 0 0 0 0 0 0 0 0 0 0 0 2 5 6 6 6 4 2 0 0 0 0 0 0 0 0 0 0 0 0 0 0 0 0 0
0 0 0 0 0 0 0 0 0 0 0 0 0 0 0 0 0 1 0 0 2 5 6 6 6 5 2 0 0 0 0 0 0 0 0 0 0 0 0 0 0 0 0 0
0 0 0 0 0 0 0 0 0 0 0 0 0 0 0 0 0 0 0 0 2 4 5 4 5 4 2 0 0 0 0 0 0 0 0 0 0 0 0 0 0 0 0 0
0 0 0 0 0 0 0 0 0 0 0 0 0 0 0 0 0 0 0 0 1 3 4 3 3 3 1 0 1 1 0 0 0 0 0 0 0 0 0 0 0 0 0 0
0 0 0 0 0 0 0 0 0 0 0 0 0 0 0 0 0 0 0 0 0 2 3 3 3 2 1 1 2 2 1 0 0 0 0 0 0 0 0 0 0 0 0 0
0 0 0 0 0 0 0 0 0 0 0 0 0 0 0 0 0 0 0 0 0 1 2 3 3 2 1 2 3 3 2 1 0 0 0 0 0 0 0 0 0 0 0 0
0 0 0 0 0 0 0 0 0 0 0 0 0 0 0 0 0 0 0 0 0 1 2 3 3 2 1 2 3 3 3 2 1 0 0 0 0 0 0 0 0 0 0 0
0 0 0 0 0 0 0 0 0 0 0 0 0 0 0 0 0 0 0 0 0 1 2 3 3 2 1 1 2 3 3 3 1 0 0 0 0 0 0 0 0 0 0 0
0 0 0 0 0 0 0 0 0 0 0 0 0 0 0 0 0 0 0 0 0 1 2 2 2 1 0 0 1 1 2 3 2 1 0 0 0 0 0 0 0 0 0 0
0 0 0 0 0 0 0 0 0 0 0 0 0 0 0 0 0 0 0 0 0 0 1 1 1 0 0 0 0 0 1 3 3 1 0 0 0 0 0 0 0 0 0 0
0 0 0 0 0 0 0 0 0 0 0 0 0 0 0 0 0 0 0 0 0 0 0 0 0 0 0 0 0 0 1 2 2 1 0 0 0 0 0 0 0 0 0 0
0 0 0 0 0 0 0 0 0 0 0 0 0 0 0 0 0 0 0 0 0 0 0 0 0 0 0 0 0 0 0 1 1 1 0 0 0 0 0 0 0 0 0 0
0 0 0 0 0 0 0 0 0 0 0 0 0 0 0 0 0 0 0 0 0 0 0 0 0 0 0 0 0 0 0 0 0 0 0 0 0 0 0 0 0 0 0 0
0 0 0 0 0 0 0 0 0 0 0 0 0 0 0 0 0 0 0 0 0 0 0 0 0 0 0 0 0 0 0 0 0 0 0 0 0 0 0 0 0 0 0 0
0 0 0 0 0 0 0 0 0 0 0 0 0 0 0 0 0 0 0 0 0 0 0 0 0 0 0 0 0 0 0 0 0 0 0 0 0 0 0 0 0 0 0 0
0 0 0 0 0 0 0 0 0 0 0 0 0 0 0 0 0 0 0 0 0 0 0 0 0 0 0 0 0 0 0 0 0 0 0 0 0 0 0 0 0 0 0 0
0 0 0 0 0 0 0 0 0 0 0 0 0 0 0 0 0 0 0 0 0 0 0 0 0 0 0 0 0 0 0 0 0 0 0 0 0 0 0 0 0 0 0 0
Wind_Speed
1 3 3 5 6 4 5 4 3 3 4 4 5 5 6 7 6 6 6 7 7 7 6 6 7 8 7 6 6 5 5 4 4 3 3 3 2 2 3 3 4 4 4 5
3 2 6 5 3 3 3 3 2 1 3 4 4 4 5 7 9 10 10 10 9 7 6 6 7 7 7 7 6 5 6 5 4 3 3 2 2 2 1 2 3 4 4 4
5 4 4 4 3 2 1 5 4 4 2 2 3 2 3 4 5 6 9 10 10 11 11 9 8 7 7 7 7 7 6 5 4 4 4 3 3 3 3 3 2 3 4 4
2 2 3 3 3 4 2 4 4 4 4 1 2 2 5 5 5 6 8 9 10 10 10 9 9 9 8 8 7 7 6 6 5 5 5 5 4 2 1 1 1 2 3 4
2 3 3 3 4 4 4 3 3 3 3 0 1 2 6 3 5 8 9 10 11 11 11 10 11 10 8 8 7 6 6 5 5 5 6 6 4 2 2 2 3 2 3 3
3 2 4 4 2 3 3 4 4 4 3 1 4 4 6 5 10 9 9 11 12 11 10 9 9 8 7 6 6 6 6 5 5 5 5 6 6 5 4 3 2 1 1 2
1 2 2 3 3 2 5 6 3 3 2 5 3 3 8 8 8 11 11 11 12 11 11 10 10 9 8 8 7 6 7 5 5 5 5 6 6 6 6 4 3 2 1 1
3 3 4 3 5 4 3 7 5 3 3 4 1 4 7 6 6 7 8 9 10 11 11 12 12 11 10 9 8 7 7 6 5 6 6 5 6 4 3 4 3 3 2 2
5 4 3 3 3 7 4 3 6 5 1 1 3 3 4 1 3 5 7 8 11 12 12 12 11 10 10 9 9 8 8 6 6 6 6 5 5 5 4 4 3 3 2 2
6 3 2 2 3 1 5 5 4 3 2 2 3 3 4 4 5 6 8 9 10 10 11 11 11 10 9 8 7 7 8 7 6 6 6 5 5 5 5 4 4 3 3 3
5 5 2 1 4 6 3 3 4 3 3 4 2 6 6 8 8 9 9 9 11 11 11 11 10 9 9 8 7 7 7 6 6 6 5 6 5 4 4 4 4 4 4 4
4 5 3 5 5 5 6 6 6 4 3 3 3 7 5 6 7 8 9 8 10 11 11 11 10 9 8 9 8 7 7 6 6 6 6 6 5 4 4 4 4 4 5 4
5 6 3 3 4 1 2 4 5 5 4 3 3 6 4 2 4 6 8 7 8 10 9 9 9 9 10 9 8 8 7 7 6 6 6 6 5 5 4 4 4 4 5 4
6 4 6 8 7 4 4 5 5 6 4 4 6 6 4 3 4 5 6 7 9 10 10 10 9 9 9 9 8 8 7 7 7 7 7 6 6 6 5 4 4 4 5 5
5 3 4 5 5 3 4 6 6 6 8 7 7 7 9 8 8 8 8 7 9 10 10 11 10 9 8 8 7 7 7 7 7 8 7 6 6 5 5 5 5 5 5 5
3 4 2 2 4 4 4 5 6 7 6 6 5 7 7 6 5 6 7 9 10 11 11 11 11 10 10 9 9 8 7 7 7 8 7 6 6 6 6 5 5 5 4 4
2 3 3 3 3 1 4 7 6 5 5 6 8 9 4 5 7 9 9 10 11 11 11 11 11 11 11 10 10 10 9 7 7 7 7 7 7 6 6 6 6 5 4 4
5 3 3 2 1 4 8 5 6 6 5 5 5 6 7 8 8 7 8 10 10 11 11 11 10 10 9 9 9 8 8 8 7 7 7 7 7 7 6 6 6 5 4 4
7 7 4 3 3 5 5 3 4 5 4 4 5 5 4 5 4 0 4 7 10 11 10 10 10 10 9 10 9 9 8 8 8 8 7 7 8 7 7 6 6 5 5 4
4 5 5 4 4 6 7 5 3 4 3 5 3 4 4 6 4 5 5 5 7 7 8 8 8 8 9 9 10 10 9 8 9 9 8 8 8 8 8 7 5 4 5 4
2 2 4 4 4 7 6 4 3 4 7 4 3 4 5 6 7 6 6 6 7 7 7 8 9 9 9 10 10 10 9 9 9 7 7 7 7 8 7 5 4 5 5 5
4 4 4 4 4 7 3 2 5 6 3 2 3 3 4 4 3 4 6 6 6 6 7 8 8 8 8 9 11 10 9 8 7 8 8 7 7 7 6 6 5 5 5 5
4 6 5 6 7 6 3 4 4 3 3 2 3 2 3 4 3 4 5 5 5 6 6 6 8 7 6 8 10 10 9 8 9 8 8 7 6 5 6 7 6 5 4 4
3 1 3 2 4 3 2 1 1 2 3 3 3 4 4 4 5 5 5 5 5 5 5 5 7 7 6 6 7 8 8 9 10 9 8 7 7 5 5 5 5 5 5 5
4 1 1 2 3 1 1 1 1 1 3 4 3 3 4 5 5 5 4 4 4 5 5 6 7 7 7 6 6 6 8 10 9 8 7 6 6 6 5 4 4 5 5 7
3 3 4 5 5 4 4 3 1 2 3 3 3 2 2 4 6 5 4 4 4 5 5 5 5 6 6 7 6 6 8 10 10 8 7 6 5 5 5 4 2 1 2 5
Wind_Direction
88 95 179 205 195 180 163 154 169 200 179 146 162 183 197 197 188 193 196 192 188 188 182 166 159 151 144 144 139 134 124 126 118 103 96 87 75 58 54 57 59 59 61 70
52 226 218 200 190 163 154 149 163 165 159 141 162 207 215 201 202 199 195 194 189 183 171 164 158 154 153 154 148 142 137 139 133 129 126 125 120 91 75 51 49 52 60 64
172 223 197 173 173 172 194 171 176 167 114 75 114 305 263 246 221 205 196 194 186 183 178 173 166 164 156 160 161 155 150 145 138 128 107 89 68 53 45 42 36 33 60 69
200 224 155 163 189 166 191 192 163 146 120 222 157 238 265 231 221 206 196 190 187 186 180 174 167 167 168 171 164 156 152 148 143 132 126 126 125 129 159 134 77 40 53 67
221 188 170 196 207 164 189 181 148 140 129 94 213 178 272 210 213 218 205 193 189 185 180 177 174 172 170 166 163 160 152 150 146 139 140 134 131 140 129 100 82 57 41 53
217 210 186 196 179 153 131 79 52 57 73 283 225 182 264 217 212 211 206 194 188 183 178 174 172 163 162 159 156 156 153 154 152 146 146 145 143 138 125 115 106 77 46 41
313 291 213 147 109 58 92 88 47 14 10 258 228 189 244 229 210 199 194 190 184 178 173 168 166 165 166 163 163 160 154 158 158 153 153 154 152 148 150 152 144 133 100 77
175 254 225 174 160 172 166 136 153 185 219 273 265 227 257 240 205 192 183 176 175 173 174 174 175 172 170 169 168 163 160 163 163 160 160 157 152 150 155 159 152 152 151 156
176 231 240 187 161 147 152 176 172 149 202 257 273 279 317 5 158 169 168 168 176 177 177 177 176 173 171 170 172 168 165 166 165 164 158 153 156 156 156 155 148 148 148 142
162 182 224 185 100 146 161 158 111 129 170 252 284 259 234 224 204 187 179 181 183 179 177 176 175 176 175 173 171 168 167 168 166 161 161 157 159 160 153 144 147 149 144 129
147 148 218 154 185 193 180 165 143 146 164 165 239 266 230 204 198 189 191 186 178 177 179 179 179 177 173 169 167 168 167 161 161 160 154 150 155 148 141 147 157 155 143 139
157 129 186 235 244 195 179 184 154 159 209 182 191 266 265 193 192 185 185 183 181 178 177 177 175 170 169 171 172 172 167 166 169 162 153 154 151 144 145 151 157 150 144 143
142 118 101 340 326 283 197 191 171 152 143 171 189 263 294 176 183 186 180 181 180 177 173 170 168 171 174 176 175 172 171 172 165 155 152 152 151 148 153 155 149 144 141 134
123 124 163 193 216 210 226 223 188 151 168 205 218 237 266 223 205 200 184 179 176 176 173 171 174 174 176 177 173 170 172 170 163 156 156 159 164 163 161 154 147 145 142 136
115 153 200 222 232 214 227 223 206 195 194 197 223 219 229 218 207 200 188 174 168 173 175 175 177 175 174 173 171 169 169 170 164 158 162 171 166 157 149 146 146 142 139 141
105 154 170 255 244 234 247 235 219 216 208 212 217 241 235 210 189 185 183 173 173 178 179 177 176 174 175 175 172 169 170 170 163 163 169 165 156 152 149 148 142 135 133 134
142 140 138 249 274 4 252 226 218 222 213 191 212 234 217 183 191 191 190 185 181 180 179 177 178 181 180 178 174 173 173 165 161 163 164 162 159 155 155 150 141 140 142 135
161 147 148 197 87 230 246 230 196 203 233 220 211 215 197 193 194 193 188 184 183 181 181 182 180 180 179 174 172 167 160 160 160 160 162 161 157 156 153 147 148 148 140 139
166 156 149 151 191 258 280 255 192 182 244 246 218 222 207 162 113 273 205 184 183 183 180 181 179 174 169 169 166 158 160 161 162 167 170 167 160 157 156 156 156 152 142 142
133 137 141 149 175 223 242 251 207 133 260 271 207 200 173 127 140 234 219 187 177 173 169 168 165 159 162 168 161 159 166 167 175 177 174 168 161 159 162 163 157 148 146 149
121 118 155 170 203 247 252 262 102 152 236 252 190 176 159 168 194 200 181 172 167 163 162 158 157 163 171 165 160 164 169 181 182 168 159 160 162 161 159 155 149 144 143 142
174 167 187 166 193 242 257 128 164 213 227 189 168 162 159 169 164 150 151 154 154 151 150 154 157 166 168 164 162 167 180 180 160 152 153 157 160 161 154 149 149 145 143 143
186 185 184 188 211 229 211 188 212 196 177 171 163 164 144 144 146 149 151 151 151 154 157 157 157 157 162 168 167 173 180 161 152 152 157 157 151 152 150 153 153 149 150 153
274 155 148 230 258 251 243 208 222 168 161 162 154 142 132 147 154 150 150 154 153 151 156 155 152 154 162 169 171 174 162 154 153 157 160 156 152 148 148 154 159 160 169 171
243 186 143 233 257 298 274 250 202 117 102 99 102 127 139 143 151 156 157 158 158 155 152 154 159 165 169 162 162 160 155 152 154 157 158 156 155 155 155 160 168 174 189 188
220 182 181 225 229 195 232 250 195 134 132 132 115 96 104 145 151 147 157 162 153 151 143 151 158 161 164 159 159 159 158 157 156 157 159 159 157 157 157 152 140 134 170 183